Regional Weather Roundup
Issued by NWS

Home | Current Version | Previous Version | Graphics & Text | Print | Product List | Glossary On
Versions: 1 2 3 4 5 6 7 8 9 10 11 12 13 14 15 16 17 18 19 20 21 22 23 24 25 26 27 28 29 30 31 32 33 34 35 36 37 38 39 40 41 42 43 44 45 46 47 48 49 50
000
ASUS45 KABQ 170810
RWRNM
NEW MEXICO REGIONAL WEATHER ROUNDUP
NATIONAL WEATHER SERVICE ALBUQUERQUE NM
100 AM MST WED JAN 17 2018

NOTE: "FAIR" MEANS FEW OR NO CLOUDS BELOW 12,000 FEET AGL WITH NO
       SIGNIFICANT WEATHER OR OBSTRUCTIONS TO VISION.

      THIS PRODUCT IS RELEASED AS TWO VERSIONS.  ONE VERSION NEAR
      THE TOP OF THE HOUR CONTAINING PRELIMINARY DATA FROM ALBUQUERQUE
      AND OTHER STATIONS.  A FINAL VERSION WITH ADDITIONAL DATA IS
      ISSUED ABOUT 10 MINUTES AFTER THE HOUR.

NMZ501-503-504-510>518-170900-
NORTHWEST PLATEAU/NORTHCENTRAL MOUNTAINS

CITY           SKY/WX    TMP DP  RH WIND       PRES   REMARKS
FARMINGTON     FAIR      18  14  84 NE5       30.35F WCI  11
LOS ALAMOS     FAIR      22  15  72 CALM      30.35F
SANTA FE       FAIR      12   9  87 NE3       30.36F
TAOS           FAIR       6   2  83 N9        30.39F WCI  -8
ANGEL FIRE     FAIR      -1  -5  84 CALM      30.34S

$$
NMZ402-403-502-505>509-170900-
WESTCENTRAL MOUNTAINS/SOUTHWEST MOUNTAINS

CITY           SKY/WX    TMP DP  RH WIND       PRES   REMARKS
GALLUP         FAIR      16  10  77 NE5       30.34F WCI   9
GRANTS         FAIR      13   7  76 CALM      30.38S
SILVER CITY    FAIR      17   7  64 E5        30.38F WCI  10

$$
NMZ407-409-411-412-170900-
SOUTHERN DESERTS

CITY           SKY/WX    TMP DP  RH WIND       PRES   REMARKS
DEMING         FAIR      22   5  48 NE6       30.43F WCI  14
LAS CRUCES     FAIR      22   5  47 CALM      30.45S
HOLLOMAN AFB   FAIR      19  -2  40 CALM      30.49F
ALAMOGORDO     FAIR      19   0  42 N7        30.47S WCI  10
T OR C         FAIR      27   8  44 SW5       30.41R WCI  22

$$
NMZ519>523-170900-
CENTRAL VALLEYS/CENTRAL HIGHLANDS

CITY           SKY/WX    TMP DP  RH WIND       PRES   REMARKS
ALBUQUERQUE    FAIR      23  16  74 NW5       30.39F WCI  17
MORIARTY ARPT  FAIR       8   1  71 CALM      30.38F
CLINES CORNERS FAIR      13   7  77 W9        30.33F WCI   1
BELEN          FAIR      18  11  75 NW7       30.40S WCI   8
SOCORRO        FAIR      22   8  55 SW7       30.42S WCI  14

$$
NMZ524>526-539-540-170900-
SOUTHCENTRAL MOUNTAINS

CITY           SKY/WX    TMP DP  RH WIND       PRES   REMARKS
RUIDOSO        FAIR      16   5  62 CALM      30.38F

$$
NMZ527>531-170900-
NORTHEAST HIGHLANDS/NORTHEAST PLAINS

CITY           SKY/WX    TMP DP  RH WIND       PRES   REMARKS
LAS VEGAS      FAIR      11   5  77 S7        30.30F WCI   0
RATON          FAIR       9   6  88 N5        30.31F WCI   1
CLAYTON        FAIR      16  10  77 SW14      30.30F WCI   2

$$
NMZ532>537-170900-
EASTCENTRAL PLAINS

CITY           SKY/WX    TMP DP  RH WIND       PRES   REMARKS
SANTA ROSA     FAIR      16   2  55 S7        30.41F WCI   6
TUCUMCARI      FAIR      16   5  62 SW9       30.41F WCI   4
CANNON AFB     FAIR      13   3  63 SW5       30.47F WCI   5
CLOVIS AIRPORT FAIR       6  -1  73 SW10      30.47F WCI  -9

$$
NMZ028-029-538-170900-
SOUTHEAST PLAINS

CITY           SKY/WX    TMP DP  RH WIND       PRES   REMARKS
ROSWELL        FAIR      14  -2  49 SW7       30.49F WCI   4
ARTESIA        FAIR      16  -4  41 SW8       30.52S WCI   5
CARLSBAD       FAIR      20   1  43 S8        30.52F WCI  10
HOBBS          MOCLDY    14  -2  48 CALM      30.52F


$$



USA.gov is the U.S. government's official web portal to all federal, state and local government web resources and services.